Temp
72 72 72 73 74 74 74 74 75 75 76 77 77 77 75 74 70 67 66 67 67 71 75 73 73 76 75 73 75 74 74 66 67 73 70 67 64 54 51 50 50 50 48 49 49 50 50 52 53 54 54 54 55 54 54 54 54 54 55 55 56 54 54 53 52 55 59 61 60 59 58 58 58 59
72 72 73 74 73 73 74 73 73 74 74 75 76 76 77 77 73 71 67 65 69 68 71 74 73 75 75 75 73 74 73 60 69 74 72 68 63 50 51 50 50 49 49 49 48 48 50 50 52 53 53 53 52 52 53 53 53 54 54 53 55 55 55 55 55 57 59 59 59 58 58 58 58 58
72 72 71 73 73 73 72 73 74 74 75 76 77 76 76 75 73 73 71 65 66 71 67 70 74 74 74 76 73 72 73 67 68 71 71 72 57 55 54 50 50 50 49 48 48 51 51 50 50 51 52 52 52 51 51 53 53 52 51 51 52 54 54 55 55 56 57 57 57 58 57 57 58 58
73 72 72 72 72 73 75 74 74 74 74 75 77 76 76 75 74 74 73 68 64 69 70 70 72 73 72 75 74 73 74 69 61 73 71 69 56 66 64 51 50 50 49 49 49 51 51 50 50 50 50 49 50 49 49 51 51 50 50 50 51 52 53 53 53 54 55 55 56 55 54 56 57 57
73 74 73 72 72 73 73 74 74 75 75 76 76 76 76 75 75 74 71 67 65 67 70 71 72 72 73 74 74 73 71 70 72 68 72 71 72 73 72 64 50 49 48 48 48 48 48 47 49 47 46 47 48 47 48 49 48 49 48 47 49 50 52 52 51 51 52 54 55 54 54 55 55 55
73 72 73 73 72 74 73 72 77 77 76 78 78 77 76 76 74 75 73 70 68 64 67 69 73 71 72 72 73 70 68 69 71 74 72 73 74 73 73 73 62 47 50 49 48 48 48 48 47 47 47 47 47 48 48 48 47 47 46 46 47 50 50 49 49 49 50 52 53 53 54 54 54 54
73 71 71 72 71 72 71 71 73 73 75 77 76 74 76 74 74 76 76 72 68 66 67 69 70 70 70 70 73 73 72 72 73 73 72 73 74 74 71 73 70 48 50 48 49 48 48 49 48 48 48 48 47 47 47 47 47 46 46 46 47 47 46 46 46 47 47 49 51 52 52 52 53 54
73 72 71 71 71 71 70 71 72 73 73 73 74 73 73 72 72 72 73 73 71 69 67 68 73 71 69 70 73 74 73 71 72 73 73 73 73 72 73 72 73 55 47 47 48 49 49 48 49 49 48 49 48 48 48 47 47 46 47 47 46 46 46 45 45 45 46 47 48 49 50 50 51 53
72 71 71 72 72 71 70 70 71 73 70 75 73 73 74 73 72 71 72 73 73 70 68 67 70 71 72 73 72 74 73 74 74 74 72 72 72 70 70 72 71 54 45 50 49 50 51 51 50 50 49 48 48 47 47 47 47 47 47 47 47 46 46 45 45 45 45 45 46 47 48 48 50 53
72 71 71 71 71 71 69 70 70 71 70 71 71 71 73 74 71 69 70 71 71 71 70 68 66 69 69 70 70 72 71 69 70 71 72 73 72 70 68 70 70 71 70 67 64 53 53 50 50 50 50 49 47 48 48 48 48 47 47 46 46 46 45 45 45 45 45 44 45 45 47 49 50 52
73 72 72 71 70 69 69 69 69 68 67 68 67 68 67 71 70 69 70 70 69 69 69 69 69 68 69 68 67 71 71 70 70 66 66 67 72 69 68 66 70 69 67 62 54 56 57 54 58 54 49 49 48 47 48 48 48 48 46 45 45 46 45 45 45 45 45 44 44 44 44 46 49 50
73 73 72 72 71 70 69 68 68 67 64 65 64 61 61 66 68 68 68 68 68 68 68 69 69 70 68 68 68 71 70 69 69 69 64 62 64 66 67 68 66 68 66 66 68 59 56 56 53 48 48 48 48 47 48 48 49 47 46 45 45 45 45 45 45 45 45 45 45 44 44 44 44 48
72 72 72 72 72 70 65 58 60 62 61 67 66 66 67 67 66 67 68 68 68 69 68 68 69 68 68 68 66 67 67 64 63 64 64 63 65 66 66 69 70 68 65 66 66 67 67 66 65 68 69 64 53 55 49 53 49 46 46 45 45 45 45 45 45 45 45 45 45 44 44 44 44 43
71 71 71 70 64 60 57 54 50 50 51 55 64 69 69 67 67 67 66 67 68 67 67 67 67 66 66 67 65 64 63 63 64 63 63 61 64 64 64 66 68 66 65 63 62 65 68 65 64 66 66 67 63 65 64 64 55 50 45 45 45 45 45 45 45 45 45 45 45 44 43 43 43 42
69 70 71 70 62 59 56 58 47 46 45 46 48 47 51 59 67 67 64 64 66 65 65 67 67 66 65 65 65 64 64 64 62 61 62 61 61 60 59 59 64 67 62 61 60 62 66 66 64 65 65 65 65 64 64 47 49 48 47 45 45 45 45 45 45 45 45 45 44 44 43 42 42 42
70 70 70 69 68 66 66 67 64 55 46 44 44 44 45 48 43 43 59 64 65 64 64 64 64 64 64 63 63 64 62 62 62 62 62 61 60 59 58 59 58 65 64 60 59 59 65 66 64 62 64 65 65 64 56 49 47 46 46 46 45 45 45 44 44 44 44 44 44 43 42 42 42 41
70 71 70 70 69 71 59 64 69 69 64 46 42 45 45 43 42 42 39 43 58 65 64 62 61 62 61 60 62 60 59 60 59 60 60 61 60 59 58 59 60 62 63 59 58 58 62 64 63 62 64 65 64 63 52 48 47 45 45 46 45 44 44 44 44 44 43 44 44 44 43 43 42 41
71 70 71 71 71 71 68 69 68 69 69 63 59 58 60 62 50 42 42 43 45 56 63 63 61 60 61 60 59 58 58 57 57 57 58 59 58 57 57 58 58 60 62 58 57 55 60 63 62 60 63 65 64 63 57 46 45 46 46 46 45 45 44 44 43 43 44 43 44 44 44 43 43 42
70 70 69 69 70 70 70 68 63 68 68 66 63 62 62 63 62 63 62 62 62 62 62 63 61 60 60 58 57 57 58 59 58 58 57 56 56 57 58 59 60 61 64 61 56 52 58 61 59 60 62 64 63 64 56 50 47 47 46 45 45 44 43 43 43 43 44 44 44 44 44 43 42 42
71 70 70 70 69 69 68 51 44 53 65 67 64 62 63 63 61 54 44 40 43 52 58 60 59 58 51 45 51 52 56 59 59 58 59 59 58 57 57 57 60 60 64 63 58 54 56 60 57 59 62 62 60 62 62 54 48 47 46 45 44 43 43 43 43 44 44 44 44 44 44 43 43 42
67 66 67 69 70 68 65 46 44 46 47 67 64 64 62 61 60 56 51 42 39 39 39 38 37 38 38 40 39 39 38 46 49 54 54 56 59 57 54 56 57 58 62 63 61 57 54 58 58 57 59 59 58 59 60 62 49 46 47 45 44 45 44 44 44 44 44 44 45 44 44 44 43 42
66 57 44 55 68 65 61 39 44 43 53 65 64 63 61 60 59 58 57 56 50 38 39 37 37 38 38 38 36 38 39 38 43 53 53 56 57 54 54 53 55 57 59 60 61 55 54 57 58 56 58 58 59 60 62 61 57 47 47 45 45 45 45 44 44 44 45 45 45 45 44 44 43 52
67 62 54 43 51 57 49 37 43 41 51 65 64 63 62 62 61 60 59 58 56 56 55 52 50 49 44 48 52 52 39 40 43 52 53 56 55 53 54 54 54 52 56 61 58 53 55 55 56 55 52 52 57 60 60 60 60 60 61 60 57 46 44 44 45 45 45 45 45 45 44 43 44 54
65 64 60 50 38 38 38 39 39 40 41 62 64 64 63 62 59 59 58 55 56 55 54 54 54 55 58 57 56 57 54 49 50 52 55 56 55 53 53 53 53 51 53 59 60 55 55 56 54 57 55 50 47 56 59 59 60 61 61 59 58 53 50 48 48 46 44 45 45 44 43 44 44 54
65 65 62 58 40 37 38 39 39 41 40 45 62 61 59 56 54 53 57 50 43 55 55 55 55 57 58 58 58 58 59 58 57 56 57 57 56 55 53 52 51 52 55 60 50 56 53 56 53 54 52 53 53 54 57 58 60 60 60 59 57 59 60 59 55 58 51 47 44 43 44 44 43 49
66 64 62 58 43 37 38 39 40 40 42 44 57 48 39 38 42 56 58 57 57 57 57 57 57 58 59 60 60 59 59 59 59 58 58 58 58 58 56 53 51 50 52 58 48 56 53 51 52 50 51 49 50 52 50 53 56 58 59 59 59 59 59 59 59 60 59 59 59 53 53 44 45 43
64 63 58 49 38 38 38 39 39 40 41 45 47 36 38 40 37 44 59 58 57 57 58 57 56 56 57 57 57 57 58 58 58 57 58 58 57 56 56 55 55 53 54 56 56 54 52 50 52 49 47 48 46 47 48 47 51 56 56 57 57 58 59 58 57 56 56 56 56 49 47 47 44 43
63 61 57 48 37 38 38 37 39 39 42 46 36 37 37 37 38 55 57 56 57 55 54 54 55 56 57 56 56 55 55 55 56 56 56 55 57 55 54 55 54 55 55 56 56 55 54 51 51 51 50 47 45 43 43 48 49 51 50 53 54 55 56 55 55 54 54 55 55 55 55 55 56 55
58 45 37 35 37 38 38 36 38 39 37 35 36 37 37 39 56 57 57 56 55 54 53 54 54 55 55 55 54 55 55 55 55 55 57 57 56 55 55 53 52 51 50 51 51 52 50 48 47 48 47 47 45 45 45 45 47 47 48 47 47 51 52 53 53 52 53 53 53 52 51 50 51 51
37 38 38 36 36 37 41 50 53 52 49 38 38 37 38 56 57 56 56 55 53 53 53 52 51 53 54 54 54 52 53 54 53 53 52 51 50 50 49 49 49 51 52 52 52 52 51 49 48 48 46 45 45 44 44 44 43 47 48 46 47 48 50 52 52 52 50 50 50 50 52 52 52 52
47 44 46 47 43 43 40 42 43 44 41 45 47 54 56 56 56 55 53 52 52 51 52 51 52 52 53 53 52 52 51 49 49 51 48 47 47 47 47 46 45 46 49 51 51 51 50 50 49 47 43 43 44 44 44 44 43 44 46 47 46 41 47 50 50 49 50 49 49 49 51 52 52 51
53 51 42 43 52 51 52 53 55 55 56 55 53 55 55 55 53 48 43 43 52 55 55 53 52 51 50 49 49 49 48 47 48 49 47 45 45 46 45 42 41 44 45 47 49 50 46 50 48 47 46 44 42 43 44 44 42 43 44 46 45 47 47 46 47 48 49 49 48 48 49 51 51 53
54 54 54 50 53 54 50 51 49 55 54 52 53 52 54 55 55 54 54 53 53 53 52 50 48 44 47 47 47 46 46 46 47 48 46 45 44 45 45 41 41 42 42 44 46 47 49 49 49 48 47 46 46 44 42 39 42 44 43 44 45 45 46 47 47 47 49 47 46 47 47 48 50 50
54 51 53 51 53 51 51 52 51 52 52 50 50 49 46 51 53 51 52 52 52 50 48 49 46 44 44 44 45 45 44 45 45 45 42 43 44 42 40 40 41 43 43 43 45 45 46 47 48 48 48 47 47 46 44 41 40 43 44 45 44 43 45 47 48 49 48 47 45 43 44 45 48 49
54 53 52 52 52 52 50 52 52 51 51 51 51 51 50 48 49 48 49 50 48 48 49 46 46 44 44 43 43 43 42 42 42 43 43 44 43 43 42 39 41 42 42 42 43 45 45 45 44 43 43 43 43 46 47 46 43 42 44 44 45 44 44 46 46 47 47 47 45 40 40 42 44 48
54 55 54 53 53 52 51 50 50 50 49 50 48 50 50 50 50 48 48 48 50 48 48 47 45 45 43 43 43 42 41 40 41 42 41 41 41 42 43 42 41 41 42 42 42 44 44 43 42 39 36 36 36 36 39 45 45 45 41 41 43 44 45 46 46 46 45 43 44 41 39 39 42 46
53 52 51 52 49 50 51 50 50 47 51 50 49 50 49 49 49 48 50 44 50 47 48 46 46 45 44 43 42 42 42 41 41 40 40 41 41 40 39 39 39 40 40 41 43 43 43 42 42 40 37 35 34 33 37 42 42 44 46 41 41 43 44 44 43 42 43 44 43 43 40 40 41 44
53 51 52 52 53 53 51 51 49 47 49 49 50 49 50 51 52 52 53 52 48 48 48 48 46 45 44 43 43 42 42 41 40 39 39 39 39 38 38 38 37 39 40 41 42 42 42 41 40 39 37 34 34 34 35 41 43 42 43 44 40 41 41 41 40 41 41 45 44 45 45 42 41 41
54 51 51 52 52 53 49 49 49 49 50 50 49 49 47 49 49 50 46 48 45 46 48 46 45 45 43 42 43 42 40 40 39 38 38 39 38 37 37 37 37 39 39 38 41 41 41 40 40 40 39 36 34 36 37 36 37 42 43 41 43 41 41 40 40 40 39 41 43 45 45 45 42 36
53 53 55 53 53 53 51 51 48 50 49 49 51 51 49 48 49 48 48 48 47 45 45 46 45 43 44 44 42 42 41 39 38 39 38 38 37 37 37 38 37 37 37 37 37 38 40 40 41 41 41 40 40 40 39 38 40 42 42 41 39 41 41 42 40 40 40 42 42 41 42 44 42 42
53 53 53 53 54 52 51 51 52 47 50 52 51 47 49 49 48 48 45 47 44 45 47 47 45 43 44 43 42 41 40 40 40 39 38 38 37 37 37 36 36 37 36 36 37 37 38 41 42 37 39 40 39 39 37 35 34 38 41 44 42 39 39 40 42 40 38 39 39 38 38 39 39 40
54 53 54 53 52 53 52 51 52 48 50 50 46 46 45 46 49 43 46 43 43 45 49 48 46 45 44 44 43 42 40 40 39 39 38 39 38 38 38 38 38 38 37 36 36 37 40 43 42 42 40 39 37 34 33 34 35 38 41 43 44 38 37 35 35 35 37 37 37 37 37 39 40 38
52 53 52 51 46 50 48 50 51 51 50 50 50 46 48 49 50 49 50 48 48 48 47 47 47 45 45 45 44 43 41 40 40 39 38 38 38 38 38 38 37 37 37 37 38 39 40 40 41 40 39 38 37 36 34 35 37 38 39 41 42 41 39 35 37 35 34 34 34 35 37 35 35 34
52 51 46 51 50 50 49 50 50 49 47 46 49 49 50 49 48 47 48 48 47 46 45 46 46 45 43 44 43 43 42 41 40 38 37 37 37 38 38 38 37 37 37 37 37 38 40 40 40 40 38 37 38 36 35 36 37 39 40 41 41 40 40 41 39 36 36 34 33 34 34 34 35 34
50 50 51 50 46 50 49 48 50 48 49 49 50 49 48 48 47 48 46 45 46 44 44 45 44 44 43 42 42 41 41 39 38 38 39 39 40 39 38 38 37 37 37 38 37 37 38 39 39 40 38 38 38 37 38 38 38 39 39 39 38 39 39 38 37 36 35 35 34 33 34 34 33 33
MSLP
1021.19 1021.19 1021.15 1020.99 1020.99 1021.03 1020.99 1020.99 1020.87 1020.91 1020.79 1020.55 1020.63 1020.55 1020.87 1020.99 1021.59 1022.35 1022.71 1022.95 1023.11 1023.07 1022.63 1022.99 1023.39 1023.23 1023.39 1023.47 1023.51 1023.63 1023.71 1024.07 1023.87 1023.79 1024.07 1024.39 1024.67 1024.99 1024.87 1024.83 1024.75 1024.67 1024.63 1024.55 1024.47 1024.35 1024.27 1024.11 1023.95 1023.79 1023.67 1023.59 1023.47 1023.35 1023.23 1023.07 1022.91 1022.83 1022.71 1022.51 1022.35 1022.39 1022.39 1022.35 1022.27 1022.15 1022.03 1021.95 1021.91 1021.91 1021.87 1021.83 1021.75 1021.79
1021.31 1021.35 1021.23 1021.15 1021.27 1021.35 1021.23 1021.35 1021.27 1021.19 1021.15 1021.03 1020.95 1020.91 1020.71 1020.75 1021.23 1021.47 1022.27 1023.19 1023.03 1023.47 1023.39 1023.11 1023.39 1023.43 1023.51 1023.59 1023.67 1023.63 1023.95 1024.31 1023.91 1023.71 1023.91 1024.23 1024.71 1024.99 1024.95 1024.91 1024.87 1024.79 1024.71 1024.67 1024.55 1024.47 1024.39 1024.27 1024.15 1024.03 1023.87 1023.75 1023.63 1023.51 1023.35 1023.23 1023.11 1022.95 1022.83 1022.75 1022.63 1022.59 1022.55 1022.43 1022.35 1022.11 1021.95 1021.87 1021.83 1021.83 1021.79 1021.75 1021.75 1021.75
1021.51 1021.59 1021.55 1021.39 1021.51 1021.47 1021.51 1021.39 1021.39 1021.35 1021.23 1021.15 1021.03 1021.15 1021.11 1021.23 1021.43 1021.31 1021.83 1023.07 1023.55 1023.19 1023.87 1023.83 1023.59 1023.63 1023.59 1023.55 1023.79 1023.91 1023.99 1024.27 1024.11 1023.91 1023.91 1024.03 1024.67 1024.67 1024.79 1024.87 1024.95 1024.91 1024.83 1024.75 1024.67 1024.51 1024.47 1024.39 1024.31 1024.19 1024.07 1023.91 1023.75 1023.59 1023.43 1023.27 1023.15 1023.03 1022.95 1022.87 1022.87 1022.79 1022.67 1022.55 1022.39 1022.19 1022.03 1021.91 1021.83 1021.75 1021.75 1021.71 1021.63 1021.59
1021.71 1021.75 1021.75 1021.71 1021.67 1021.59 1021.39 1021.59 1021.63 1021.59 1021.59 1021.43 1021.23 1021.27 1021.39 1021.55 1021.63 1021.59 1021.67 1022.55 1023.75 1023.59 1023.63 1023.79 1023.83 1023.79 1023.83 1023.51 1023.59 1023.75 1023.87 1024.23 1024.15 1023.75 1023.95 1024.07 1024.35 1024.15 1024.23 1024.75 1024.87 1024.99 1024.91 1024.87 1024.75 1024.67 1024.55 1024.47 1024.31 1024.23 1024.15 1024.03 1023.91 1023.79 1023.59 1023.43 1023.31 1023.19 1023.07 1022.99 1022.87 1022.79 1022.71 1022.59 1022.43 1022.27 1022.11 1021.99 1021.91 1021.83 1021.75 1021.63 1021.55 1021.51
1021.75 1021.75 1021.87 1021.95 1021.95 1021.87 1021.79 1021.75 1021.71 1021.71 1021.71 1021.63 1021.55 1021.47 1021.51 1021.71 1021.79 1021.83 1022.35 1023.07 1023.71 1023.91 1023.75 1023.67 1023.71 1023.87 1023.67 1023.67 1023.63 1023.79 1023.95 1023.95 1023.91 1023.91 1023.87 1023.87 1023.71 1023.55 1023.55 1024.23 1024.75 1024.87 1024.99 1024.95 1024.83 1024.75 1024.63 1024.51 1024.39 1024.27 1024.15 1024.03 1023.91 1023.79 1023.67 1023.55 1023.43 1023.31 1023.19 1023.07 1022.95 1022.79 1022.63 1022.51 1022.43 1022.31 1022.19 1022.03 1021.91 1021.83 1021.75 1021.67 1021.63 1021.59
1021.95 1022.03 1021.95 1021.99 1022.11 1021.95 1022.03 1021.99 1021.59 1021.71 1021.71 1021.55 1021.51 1021.67 1021.63 1021.83 1022.03 1021.83 1022.19 1022.83 1023.23 1023.99 1023.99 1023.87 1023.71 1023.95 1023.87 1023.75 1023.83 1024.07 1024.11 1024.11 1023.87 1023.55 1023.67 1023.63 1023.55 1023.55 1023.39 1023.27 1024.23 1024.71 1024.83 1024.87 1024.83 1024.71 1024.59 1024.51 1024.35 1024.27 1024.11 1023.99 1023.87 1023.75 1023.63 1023.51 1023.39 1023.31 1023.23 1023.15 1023.07 1022.91 1022.75 1022.59 1022.47 1022.35 1022.23 1022.07 1021.91 1021.83 1021.71 1021.67 1021.63 1021.55
1021.95 1022.15 1022.19 1022.23 1022.31 1022.31 1022.31 1022.27 1022.11 1022.19 1021.95 1021.67 1021.95 1022.15 1021.95 1022.11 1022.19 1022.11 1022.07 1022.51 1023.19 1023.59 1023.83 1023.79 1023.75 1023.87 1024.03 1023.83 1023.71 1023.71 1023.87 1023.87 1023.67 1023.55 1023.63 1023.51 1023.47 1023.51 1023.55 1023.31 1023.63 1024.55 1024.63 1024.75 1024.67 1024.59 1024.47 1024.39 1024.23 1024.11 1024.03 1023.91 1023.79 1023.71 1023.59 1023.47 1023.35 1023.23 1023.11 1023.03 1022.95 1022.91 1022.79 1022.71 1022.55 1022.43 1022.31 1022.15 1021.99 1021.87 1021.75 1021.67 1021.55 1021.43
1021.99 1022.07 1022.19 1022.31 1022.39 1022.39 1022.47 1022.39 1022.31 1022.27 1022.31 1022.23 1022.19 1022.43 1022.43 1022.51 1022.59 1022.59 1022.55 1022.39 1022.71 1023.15 1023.63 1023.63 1023.19 1023.71 1023.91 1023.95 1023.67 1023.67 1023.71 1023.87 1023.71 1023.51 1023.47 1023.39 1023.43 1023.51 1023.39 1023.35 1023.27 1024.15 1024.47 1024.55 1024.55 1024.43 1024.31 1024.23 1024.11 1023.99 1023.87 1023.75 1023.67 1023.59 1023.47 1023.35 1023.27 1023.15 1023.07 1022.99 1022.91 1022.83 1022.75 1022.63 1022.55 1022.43 1022.31 1022.19 1022.07 1021.91 1021.79 1021.67 1021.51 1021.35
1022.03 1022.07 1022.19 1022.19 1022.23 1022.43 1022.47 1022.55 1022.47 1022.31 1022.67 1022.27 1022.39 1022.47 1022.47 1022.55 1022.91 1022.95 1022.71 1022.59 1022.67 1022.99 1023.35 1023.67 1023.51 1023.55 1023.47 1023.43 1023.63 1023.47 1023.35 1023.15 1023.15 1023.15 1023.31 1023.39 1023.39 1023.47 1023.59 1023.35 1023.43 1023.91 1024.19 1024.23 1024.23 1024.15 1023.99 1023.95 1023.91 1023.79 1023.75 1023.63 1023.55 1023.43 1023.31 1023.23 1023.11 1023.03 1022.95 1022.87 1022.83 1022.75 1022.67 1022.59 1022.47 1022.39 1022.31 1022.19 1022.07 1021.91 1021.75 1021.63 1021.47 1021.23
1021.95 1022.11 1022.15 1022.27 1022.35 1022.47 1022.59 1022.51 1022.55 1022.63 1022.71 1022.83 1022.75 1022.79 1022.63 1022.59 1023.07 1023.19 1023.19 1022.99 1022.95 1022.91 1023.19 1023.43 1023.79 1023.59 1023.51 1023.55 1023.63 1023.47 1023.59 1023.67 1023.47 1023.35 1023.15 1022.99 1023.11 1023.35 1023.43 1023.27 1023.27 1023.39 1023.47 1023.51 1023.63 1023.71 1023.51 1023.51 1023.51 1023.47 1023.43 1023.39 1023.35 1023.27 1023.15 1023.07 1022.95 1022.87 1022.83 1022.79 1022.75 1022.67 1022.55 1022.47 1022.39 1022.31 1022.19 1022.11 1022.03 1021.91 1021.75 1021.55 1021.39 1021.19
1021.71 1021.87 1022.03 1022.19 1022.35 1022.47 1022.59 1022.63 1022.71 1022.87 1023.07 1023.15 1023.31 1023.23 1023.59 1023.15 1023.11 1023.23 1023.11 1023.07 1023.19 1023.11 1023.15 1023.27 1023.23 1023.43 1023.55 1023.51 1023.55 1023.39 1023.63 1023.59 1023.55 1023.67 1023.63 1023.43 1023.03 1023.15 1023.31 1023.27 1023.03 1023.19 1023.27 1023.23 1023.39 1023.35 1023.23 1023.23 1023.07 1022.95 1023.03 1023.03 1023.03 1023.03 1022.95 1022.83 1022.79 1022.71 1022.75 1022.71 1022.63 1022.55 1022.43 1022.35 1022.27 1022.19 1022.11 1022.03 1021.91 1021.79 1021.67 1021.51 1021.35 1021.15
1021.51 1021.63 1021.75 1021.91 1022.07 1022.27 1022.43 1022.75 1022.87 1022.95 1023.39 1023.39 1023.55 1023.79 1024.19 1023.83 1023.55 1023.35 1023.31 1023.35 1023.23 1023.19 1023.23 1023.03 1023.19 1023.07 1023.31 1023.47 1023.67 1023.55 1023.51 1023.39 1023.23 1023.51 1023.99 1023.83 1023.51 1023.31 1023.15 1022.95 1023.03 1022.99 1023.15 1022.99 1022.75 1022.79 1022.91 1022.79 1022.67 1022.63 1022.55 1022.59 1022.71 1022.67 1022.55 1022.43 1022.47 1022.55 1022.63 1022.59 1022.51 1022.43 1022.35 1022.23 1022.11 1022.03 1021.95 1021.87 1021.75 1021.59 1021.47 1021.35 1021.23 1021.07
1021.47 1021.51 1021.59 1021.75 1021.87 1022.11 1022.43 1022.67 1022.75 1022.91 1023.15 1023.11 1023.23 1023.35 1023.39 1023.43 1023.47 1023.43 1023.23 1023.15 1023.07 1022.91 1022.99 1023.07 1023.07 1023.15 1022.91 1022.71 1023.15 1023.31 1023.31 1023.79 1023.99 1024.03 1024.03 1023.91 1023.47 1023.31 1023.07 1022.63 1022.51 1022.95 1023.11 1022.87 1022.79 1022.51 1022.35 1022.35 1022.23 1021.95 1021.51 1021.71 1022.31 1022.07 1022.07 1021.83 1022.07 1022.35 1022.39 1022.35 1022.35 1022.27 1022.15 1022.07 1021.99 1021.87 1021.79 1021.67 1021.55 1021.43 1021.27 1021.15 1021.03 1020.91
1021.39 1021.47 1021.55 1021.67 1022.03 1022.35 1022.63 1022.83 1022.99 1023.11 1023.19 1023.27 1023.07 1022.87 1023.03 1023.27 1023.23 1023.23 1023.23 1023.15 1022.99 1022.83 1022.87 1022.83 1022.83 1022.95 1022.79 1022.71 1023.27 1023.67 1023.87 1024.07 1024.11 1024.03 1023.99 1023.87 1023.51 1023.31 1023.03 1022.67 1022.31 1022.83 1022.99 1022.99 1022.79 1022.47 1022.11 1022.19 1022.07 1021.75 1021.51 1021.39 1021.63 1021.43 1021.27 1021.23 1021.75 1021.99 1022.11 1022.19 1022.19 1022.11 1021.99 1021.87 1021.75 1021.67 1021.59 1021.51 1021.43 1021.31 1021.15 1021.03 1020.91 1020.75
1021.31 1021.43 1021.51 1021.63 1022.15 1022.47 1022.67 1022.83 1023.03 1023.23 1023.35 1023.39 1023.39 1023.43 1023.39 1023.19 1023.15 1023.19 1023.39 1023.43 1023.15 1023.27 1023.07 1022.67 1022.83 1022.99 1022.99 1023.11 1023.55 1023.59 1023.79 1023.95 1024.15 1024.19 1024.11 1023.99 1023.75 1023.51 1023.35 1023.03 1022.47 1022.59 1023.23 1023.03 1022.83 1022.35 1021.99 1021.99 1021.71 1021.43 1021.35 1021.27 1021.23 1021.19 1021.11 1021.55 1021.67 1021.91 1021.99 1022.03 1021.99 1021.95 1021.87 1021.75 1021.63 1021.55 1021.43 1021.31 1021.19 1021.11 1021.03 1020.91 1020.79 1020.63
1021.03 1021.19 1021.31 1021.51 1021.71 1022.11 1022.19 1022.27 1022.51 1022.91 1023.23 1023.39 1023.59 1023.79 1023.79 1023.67 1023.75 1023.83 1023.59 1023.31 1023.27 1023.31 1023.11 1022.99 1023.11 1023.23 1023.23 1023.47 1023.75 1023.67 1023.91 1023.99 1024.11 1024.03 1023.99 1023.83 1023.75 1023.75 1023.59 1023.23 1022.99 1022.51 1022.91 1023.11 1022.83 1022.27 1021.75 1021.59 1021.47 1021.39 1021.19 1021.03 1020.91 1020.91 1021.07 1021.31 1021.55 1021.71 1021.79 1021.75 1021.75 1021.71 1021.63 1021.55 1021.47 1021.35 1021.27 1021.19 1021.07 1020.95 1020.83 1020.71 1020.59 1020.47
1020.87 1020.91 1021.03 1021.19 1021.43 1021.47 1022.15 1022.15 1021.91 1021.95 1022.47 1023.31 1023.79 1023.91 1024.11 1024.31 1024.27 1024.15 1024.11 1024.11 1023.87 1023.39 1023.39 1023.51 1023.55 1023.63 1023.79 1023.99 1023.91 1024.39 1024.63 1024.63 1024.39 1024.19 1023.95 1023.75 1023.87 1023.83 1023.67 1023.23 1022.95 1022.83 1023.07 1023.19 1022.79 1022.19 1021.67 1021.47 1021.11 1020.95 1020.79 1020.71 1020.67 1020.71 1020.79 1020.99 1021.27 1021.47 1021.47 1021.47 1021.43 1021.43 1021.39 1021.31 1021.23 1021.11 1021.07 1020.95 1020.87 1020.71 1020.59 1020.47 1020.35 1020.23
1020.67 1020.83 1020.83 1020.83 1020.95 1021.11 1021.59 1021.63 1021.55 1021.67 1021.87 1022.71 1023.35 1023.59 1023.67 1023.63 1024.27 1024.39 1024.35 1024.31 1024.31 1024.07 1023.75 1023.67 1023.71 1024.03 1024.15 1024.11 1024.43 1024.83 1024.91 1024.87 1024.67 1024.55 1024.35 1024.27 1024.19 1024.03 1023.79 1023.59 1023.43 1023.11 1023.07 1023.07 1022.83 1022.43 1021.59 1021.19 1021.15 1020.91 1020.55 1020.47 1020.47 1020.47 1020.51 1020.83 1020.99 1021.07 1021.11 1021.15 1021.19 1021.19 1021.15 1021.07 1020.99 1020.91 1020.83 1020.71 1020.59 1020.47 1020.31 1020.19 1020.03 1019.91
1020.79 1020.91 1021.07 1021.11 1021.07 1021.15 1021.19 1021.39 1021.67 1021.67 1021.75 1022.31 1022.67 1022.91 1023.11 1023.23 1023.51 1023.67 1023.95 1024.07 1024.03 1023.99 1023.99 1023.95 1024.11 1024.39 1024.55 1024.71 1024.87 1024.87 1024.91 1024.79 1024.79 1024.79 1024.83 1024.79 1024.55 1024.27 1023.91 1023.39 1022.95 1022.55 1022.31 1022.55 1022.99 1022.55 1021.63 1021.39 1021.27 1020.79 1020.43 1020.27 1020.19 1020.15 1020.19 1020.35 1020.51 1020.67 1020.83 1020.91 1020.99 1020.99 1020.95 1020.87 1020.79 1020.71 1020.63 1020.51 1020.35 1020.23 1020.07 1019.91 1019.79 1019.63
1020.75 1020.87 1021.03 1021.03 1021.07 1021.23 1021.43 1022.19 1022.31 1022.35 1022.03 1022.03 1022.51 1022.59 1022.75 1023.03 1023.59 1024.63 1025.39 1025.35 1025.07 1024.71 1024.47 1024.51 1024.63 1024.83 1025.23 1025.35 1025.27 1025.31 1025.15 1024.95 1024.83 1024.87 1024.63 1024.35 1024.11 1023.79 1023.23 1022.67 1022.23 1022.15 1021.79 1022.07 1022.47 1022.31 1021.67 1021.39 1021.27 1020.75 1020.43 1020.31 1020.15 1019.95 1019.87 1019.87 1020.11 1020.31 1020.59 1020.71 1020.71 1020.71 1020.63 1020.55 1020.47 1020.39 1020.27 1020.19 1020.07 1019.95 1019.83 1019.71 1019.55 1019.39
1021.15 1021.43 1021.43 1021.19 1021.11 1021.27 1021.91 1022.71 1022.79 1022.67 1022.59 1021.99 1022.23 1022.43 1022.79 1023.19 1023.55 1024.31 1025.11 1025.39 1025.35 1025.31 1025.39 1025.47 1025.51 1025.51 1025.51 1025.51 1025.59 1025.63 1025.75 1025.71 1025.67 1025.35 1024.87 1023.99 1023.43 1023.27 1023.11 1022.55 1022.23 1021.83 1021.67 1021.75 1021.83 1021.87 1021.79 1021.43 1021.19 1020.83 1020.51 1020.31 1020.15 1019.99 1019.79 1019.51 1019.67 1020.11 1020.27 1020.27 1020.23 1020.19 1020.15 1020.07 1020.03 1019.95 1019.87 1019.75 1019.67 1019.55 1019.47 1019.39 1019.27 1019.11
1021.35 1022.23 1022.43 1021.91 1021.43 1021.59 1022.35 1022.99 1022.99 1022.95 1022.75 1022.15 1022.23 1022.43 1022.79 1023.07 1023.31 1023.87 1024.31 1024.67 1025.23 1025.55 1025.55 1025.59 1025.55 1025.55 1025.55 1025.55 1025.63 1025.67 1025.71 1025.79 1025.83 1025.43 1024.63 1023.95 1023.87 1023.59 1023.15 1022.79 1022.31 1021.95 1021.95 1021.63 1021.79 1022.23 1021.91 1021.47 1021.15 1020.87 1020.43 1020.27 1019.79 1019.43 1019.23 1019.31 1019.47 1019.67 1019.59 1019.59 1019.67 1019.59 1019.51 1019.55 1019.59 1019.55 1019.47 1019.39 1019.31 1019.23 1019.11 1019.03 1018.95 1018.59
1021.19 1021.91 1022.51 1022.71 1022.43 1022.43 1022.99 1023.23 1023.23 1023.19 1022.83 1022.11 1022.27 1022.27 1022.47 1022.51 1022.67 1023.35 1023.87 1024.19 1024.43 1024.75 1024.91 1025.11 1025.27 1025.23 1025.39 1025.35 1025.19 1025.07 1025.43 1025.59 1025.75 1025.43 1024.91 1024.35 1023.95 1023.51 1023.11 1022.87 1022.63 1022.27 1021.63 1021.43 1022.19 1022.23 1021.43 1021.47 1021.23 1021.31 1020.75 1020.15 1019.47 1019.39 1019.19 1019.27 1019.19 1019.11 1018.99 1018.87 1018.91 1019.11 1019.27 1019.27 1019.23 1019.15 1019.07 1018.95 1018.87 1018.79 1018.75 1018.71 1018.71 1018.23
1021.27 1021.67 1022.39 1023.19 1023.55 1023.43 1023.51 1023.47 1023.43 1023.27 1023.03 1022.23 1022.23 1022.31 1022.31 1022.27 1022.79 1023.71 1024.03 1024.43 1024.43 1024.63 1024.71 1024.63 1024.67 1024.59 1024.39 1024.39 1024.47 1024.39 1024.67 1025.15 1025.19 1025.03 1024.63 1024.27 1024.03 1023.83 1023.51 1023.15 1022.91 1022.59 1022.07 1021.71 1021.83 1021.87 1021.51 1021.47 1021.07 1021.03 1020.67 1020.59 1020.03 1019.19 1018.99 1018.87 1018.79 1018.67 1018.67 1018.67 1018.55 1018.47 1018.55 1018.55 1018.47 1018.43 1018.39 1018.31 1018.23 1018.27 1018.27 1018.19 1018.23 1017.91
1020.99 1021.39 1022.03 1022.91 1024.03 1023.87 1023.75 1023.63 1023.55 1023.47 1023.31 1022.99 1022.67 1022.83 1023.03 1023.71 1024.03 1024.11 1024.15 1024.95 1025.07 1024.51 1024.47 1024.39 1024.27 1024.03 1023.91 1023.83 1023.83 1023.71 1023.63 1023.71 1023.91 1023.99 1023.99 1024.03 1023.87 1023.63 1023.35 1023.11 1022.87 1022.39 1021.99 1021.67 1022.11 1022.11 1021.55 1021.11 1021.15 1021.15 1021.03 1020.51 1019.75 1019.07 1018.51 1018.59 1018.35 1018.31 1018.39 1018.47 1018.43 1018.11 1017.95 1017.83 1017.91 1017.83 1017.75 1017.71 1017.67 1017.59 1017.43 1017.43 1017.59 1017.63
1020.83 1021.43 1022.07 1022.91 1024.11 1024.15 1023.95 1023.87 1023.87 1023.79 1023.75 1023.75 1023.71 1024.63 1024.79 1024.83 1024.67 1024.27 1024.07 1024.11 1024.15 1024.03 1023.99 1023.79 1023.55 1023.39 1023.27 1023.11 1023.03 1023.11 1023.19 1023.31 1023.47 1023.59 1023.63 1023.55 1023.43 1023.31 1023.27 1023.19 1022.99 1022.59 1022.03 1021.71 1022.03 1021.95 1021.63 1021.27 1021.27 1021.23 1020.95 1020.87 1020.07 1019.87 1019.39 1018.95 1018.79 1018.43 1018.43 1018.23 1018.03 1017.75 1017.75 1017.43 1017.15 1016.91 1017.11 1017.15 1017.11 1016.91 1017.03 1017.35 1017.47 1017.55
1021.11 1021.71 1022.67 1023.87 1024.51 1024.27 1024.19 1024.15 1024.15 1024.15 1024.19 1024.23 1024.75 1025.11 1025.03 1025.07 1024.99 1024.71 1023.91 1023.99 1023.99 1023.67 1023.55 1023.59 1023.55 1023.43 1023.31 1023.15 1023.11 1023.15 1023.23 1023.27 1023.47 1023.67 1023.55 1023.31 1023.35 1023.31 1023.15 1023.15 1023.03 1022.83 1022.47 1022.31 1022.31 1022.23 1022.11 1021.67 1021.39 1021.35 1021.19 1021.03 1020.79 1020.35 1020.19 1019.67 1018.91 1018.59 1018.31 1018.15 1018.07 1017.83 1017.67 1017.51 1017.35 1017.19 1017.19 1017.15 1017.07 1017.19 1017.03 1016.79 1016.83 1016.83
1021.23 1021.87 1022.75 1023.99 1024.55 1024.39 1024.43 1024.51 1024.51 1024.51 1024.51 1024.83 1025.31 1025.23 1025.27 1025.11 1025.07 1024.35 1023.87 1023.91 1023.75 1023.95 1023.87 1023.75 1023.47 1023.27 1023.19 1023.35 1023.39 1023.43 1023.59 1023.75 1023.67 1023.75 1023.63 1023.47 1022.99 1023.07 1023.15 1023.03 1022.91 1022.67 1022.47 1022.27 1022.07 1021.95 1021.75 1021.47 1021.15 1021.07 1020.95 1020.83 1020.75 1020.63 1020.35 1019.83 1019.55 1019.03 1018.67 1018.35 1018.23 1018.07 1017.95 1017.87 1017.71 1017.51 1017.39 1017.19 1017.03 1016.87 1016.71 1016.51 1016.31 1016.27
1021.83 1022.79 1023.75 1024.27 1024.39 1024.51 1024.63 1024.83 1024.99 1025.11 1025.31 1025.39 1025.35 1025.39 1025.19 1025.19 1024.23 1023.87 1023.83 1023.79 1023.91 1023.79 1023.63 1023.55 1023.59 1023.59 1023.59 1023.67 1023.83 1023.83 1023.71 1023.59 1023.71 1023.43 1022.55 1022.71 1022.79 1022.75 1022.75 1022.79 1022.87 1022.83 1022.79 1022.63 1022.51 1022.39 1022.23 1022.11 1021.91 1021.71 1021.51 1021.23 1020.99 1020.51 1020.35 1019.79 1019.59 1019.23 1019.11 1019.03 1018.83 1018.51 1018.35 1018.15 1017.99 1017.75 1017.43 1017.31 1017.19 1017.19 1017.15 1017.07 1016.91 1016.75
1023.11 1023.51 1024.03 1024.31 1024.47 1024.55 1024.55 1024.27 1024.11 1024.43 1025.07 1025.31 1025.19 1025.11 1025.03 1024.19 1023.87 1024.07 1023.91 1023.99 1024.03 1023.91 1023.87 1024.03 1024.07 1023.87 1023.75 1023.75 1023.87 1024.19 1023.95 1023.55 1023.23 1023.23 1023.27 1023.23 1023.23 1023.19 1023.11 1022.95 1022.63 1022.47 1022.35 1022.27 1022.15 1021.99 1021.87 1021.71 1021.55 1021.47 1021.35 1021.23 1021.07 1020.75 1020.43 1020.23 1019.87 1019.51 1019.27 1019.19 1018.87 1018.71 1018.55 1018.15 1017.83 1017.59 1017.55 1017.47 1017.39 1017.27 1017.07 1016.95 1016.83 1016.71
1023.51 1023.95 1023.99 1024.07 1024.15 1024.03 1024.27 1024.23 1024.47 1024.71 1025.11 1024.99 1024.75 1024.31 1024.03 1024.03 1024.11 1024.19 1024.43 1024.47 1024.39 1024.11 1023.95 1023.91 1024.11 1024.11 1024.11 1024.15 1024.11 1023.87 1023.99 1024.11 1023.95 1023.75 1023.83 1023.83 1023.55 1023.43 1023.23 1023.07 1022.75 1022.51 1022.19 1021.99 1021.91 1021.83 1021.71 1021.63 1021.59 1021.55 1021.51 1021.27 1021.07 1020.87 1020.59 1020.43 1020.11 1019.75 1019.35 1019.11 1019.03 1019.07 1018.35 1018.19 1018.03 1017.91 1017.75 1017.55 1017.39 1017.23 1016.99 1016.71 1016.47 1016.43
1022.91 1023.47 1024.03 1024.15 1024.03 1024.11 1024.03 1023.95 1023.79 1023.75 1023.79 1023.87 1023.99 1023.99 1023.99 1024.07 1024.35 1024.83 1025.19 1025.23 1024.47 1023.87 1023.63 1023.87 1023.95 1024.07 1024.35 1024.39 1024.31 1024.27 1024.19 1024.11 1023.91 1023.79 1023.75 1023.67 1023.51 1023.31 1023.23 1023.19 1022.87 1022.51 1022.11 1021.83 1021.59 1021.39 1021.39 1021.35 1021.35 1021.31 1021.27 1021.19 1021.11 1020.79 1020.63 1020.43 1020.11 1019.79 1019.43 1019.11 1018.91 1018.63 1018.47 1018.31 1018.07 1017.79 1017.59 1017.47 1017.31 1017.07 1016.83 1016.51 1016.27 1015.99
1022.75 1022.99 1023.03 1022.99 1023.15 1023.19 1023.23 1023.27 1023.19 1023.39 1023.63 1023.83 1024.03 1024.39 1024.23 1023.99 1023.95 1023.99 1023.99 1024.03 1023.91 1023.83 1024.11 1024.19 1024.43 1024.59 1024.59 1024.55 1024.47 1024.35 1024.15 1023.91 1023.83 1023.71 1023.67 1023.59 1023.47 1023.19 1023.11 1023.03 1022.79 1022.43 1022.03 1021.59 1021.35 1021.19 1021.07 1020.95 1020.91 1020.91 1020.87 1020.75 1020.63 1020.59 1020.67 1020.51 1019.99 1019.63 1019.31 1018.91 1018.67 1018.43 1018.23 1018.07 1017.95 1017.67 1017.47 1017.39 1017.15 1016.87 1016.67 1016.55 1016.39 1016.27
1022.15 1022.43 1022.43 1022.67 1022.75 1022.95 1023.07 1023.15 1023.27 1023.47 1023.63 1023.79 1023.87 1024.07 1024.67 1024.43 1024.19 1024.47 1024.35 1024.23 1024.19 1024.39 1024.47 1024.35 1024.55 1024.67 1024.71 1024.67 1024.47 1024.31 1024.15 1023.95 1023.83 1023.71 1023.79 1023.59 1023.39 1023.27 1023.07 1022.83 1022.51 1022.15 1021.91 1021.55 1021.23 1020.99 1020.79 1020.67 1020.55 1020.39 1020.31 1020.27 1020.19 1020.23 1020.27 1020.27 1019.91 1019.55 1019.19 1018.87 1018.63 1018.43 1018.11 1017.95 1017.71 1017.47 1017.35 1017.19 1017.03 1016.99 1016.83 1016.59 1016.43 1016.31
1021.87 1022.07 1022.27 1022.43 1022.55 1022.75 1022.83 1022.99 1023.19 1023.51 1023.67 1023.75 1023.79 1023.95 1024.19 1024.15 1024.39 1024.51 1024.35 1024.39 1024.55 1024.35 1024.07 1024.23 1024.35 1024.43 1024.55 1024.51 1024.39 1024.31 1024.27 1024.23 1024.07 1023.79 1023.59 1023.35 1023.07 1022.83 1022.63 1022.51 1022.23 1022.07 1021.83 1021.55 1021.27 1020.91 1020.71 1020.59 1020.51 1020.43 1020.27 1020.15 1019.91 1019.47 1019.47 1019.51 1019.51 1019.23 1018.99 1018.71 1018.43 1018.19 1017.91 1017.71 1017.51 1017.31 1017.19 1017.07 1017.15 1017.35 1017.03 1016.83 1016.59 1016.15
1021.63 1021.71 1021.91 1022.19 1022.43 1022.67 1022.87 1023.27 1023.55 1023.71 1023.79 1024.03 1024.11 1024.03 1023.99 1023.99 1024.15 1024.43 1024.19 1024.55 1024.51 1024.19 1024.19 1024.23 1024.35 1024.39 1024.31 1024.35 1024.31 1024.31 1024.23 1024.19 1023.99 1023.71 1023.51 1023.27 1023.07 1022.83 1022.51 1022.31 1022.23 1022.07 1021.87 1021.55 1021.19 1020.83 1020.71 1020.59 1020.47 1020.51 1020.55 1020.39 1020.19 1019.79 1019.07 1018.71 1018.95 1018.91 1018.83 1018.51 1018.27 1018.11 1017.87 1017.67 1017.47 1017.35 1017.35 1017.31 1017.15 1017.15 1017.03 1016.71 1016.35 1016.07
1021.43 1021.55 1021.87 1022.11 1022.47 1022.71 1022.91 1023.35 1023.51 1023.71 1023.91 1024.03 1024.15 1024.15 1024.15 1024.07 1024.07 1024.03 1024.19 1024.55 1024.23 1024.07 1023.99 1024.27 1024.15 1024.11 1024.19 1024.19 1024.15 1023.95 1023.79 1023.75 1023.67 1023.55 1023.43 1023.15 1022.95 1022.75 1022.63 1022.39 1022.27 1022.03 1021.83 1021.39 1021.03 1020.71 1020.59 1020.47 1020.27 1020.27 1020.35 1020.31 1020.19 1019.79 1019.07 1018.47 1018.47 1018.59 1018.51 1018.47 1018.31 1018.15 1017.99 1017.79 1017.67 1017.55 1017.35 1017.19 1016.95 1016.75 1016.67 1016.59 1016.31 1016.07
1021.43 1021.75 1021.99 1022.23 1022.43 1022.63 1023.07 1023.31 1023.67 1023.83 1023.91 1024.03 1024.15 1024.15 1024.11 1024.03 1023.91 1023.99 1024.03 1023.91 1023.99 1023.99 1023.75 1023.79 1023.83 1023.87 1023.91 1024.03 1023.99 1023.79 1023.71 1023.63 1023.63 1023.55 1023.31 1023.11 1022.95 1022.71 1022.51 1022.35 1022.07 1021.83 1021.51 1021.15 1020.87 1020.63 1020.51 1020.43 1020.35 1020.23 1020.23 1020.23 1019.91 1019.47 1019.03 1018.31 1018.23 1018.23 1018.31 1018.35 1018.31 1018.15 1018.11 1018.07 1017.87 1017.47 1017.19 1016.91 1016.63 1016.31 1016.27 1016.43 1016.39 1016.39
1021.47 1021.71 1021.91 1022.23 1022.55 1022.87 1023.27 1023.39 1023.59 1023.83 1023.95 1023.99 1024.11 1024.11 1024.15 1024.03 1023.99 1024.03 1023.95 1023.91 1023.95 1023.91 1023.79 1023.75 1023.67 1023.75 1023.95 1023.91 1023.83 1023.83 1023.79 1023.71 1023.71 1023.55 1023.35 1023.07 1022.83 1022.67 1022.47 1022.27 1022.03 1021.67 1021.39 1021.07 1020.75 1020.47 1020.31 1020.23 1019.99 1019.87 1019.79 1019.91 1019.83 1019.39 1019.11 1019.11 1018.79 1018.27 1018.15 1018.23 1018.19 1018.23 1018.07 1017.95 1017.67 1017.43 1017.31 1016.95 1016.51 1016.23 1016.07 1016.03 1016.39 1016.55
1021.59 1021.71 1021.75 1022.19 1022.55 1022.83 1023.19 1023.43 1023.59 1023.75 1024.03 1024.07 1023.95 1024.03 1024.07 1024.07 1024.03 1023.95 1023.91 1023.87 1023.87 1023.95 1023.71 1023.63 1023.67 1023.83 1023.79 1023.75 1023.79 1023.71 1023.63 1023.55 1023.39 1023.19 1023.03 1022.91 1022.75 1022.59 1022.35 1022.07 1021.87 1021.59 1021.31 1020.99 1020.71 1020.35 1020.11 1019.83 1019.59 1019.39 1019.35 1019.31 1019.31 1019.31 1019.35 1019.31 1018.91 1018.47 1018.19 1017.95 1017.95 1017.99 1017.83 1017.71 1017.59 1017.43 1017.15 1016.75 1016.63 1016.51 1016.11 1015.79 1015.75 1015.87
1021.75 1021.91 1022.15 1022.35 1022.59 1022.87 1023.19 1023.39 1023.51 1023.79 1023.87 1023.91 1023.99 1024.23 1024.15 1024.03 1024.03 1023.95 1024.11 1024.19 1024.31 1024.31 1023.83 1023.47 1023.51 1023.71 1023.63 1023.63 1023.59 1023.55 1023.43 1023.23 1023.03 1022.91 1022.79 1022.67 1022.55 1022.31 1022.03 1021.95 1021.75 1021.39 1021.11 1020.75 1020.47 1020.19 1019.87 1019.47 1019.27 1019.39 1019.43 1019.35 1019.27 1019.35 1019.35 1019.19 1018.83 1017.99 1017.47 1016.95 1016.95 1017.27 1017.47 1017.59 1017.51 1017.51 1017.47 1017.27 1017.19 1016.95 1016.63 1016.31 1016.03 1015.79
1021.75 1021.99 1022.27 1022.47 1022.71 1022.95 1023.15 1023.35 1023.51 1023.71 1023.87 1023.91 1023.91 1023.95 1023.99 1023.91 1023.75 1024.31 1024.11 1024.03 1024.15 1023.79 1023.23 1023.11 1023.31 1023.47 1023.47 1023.39 1023.35 1023.27 1023.23 1023.07 1022.95 1022.79 1022.59 1022.35 1022.07 1021.79 1021.55 1021.31 1021.07 1020.83 1020.79 1020.55 1020.23 1019.95 1019.59 1019.35 1019.23 1019.23 1019.15 1019.19 1019.27 1019.39 1019.03 1018.55 1018.15 1017.67 1017.27 1016.91 1016.87 1017.47 1017.67 1017.83 1017.91 1017.95 1017.91 1017.67 1017.39 1017.03 1016.59 1016.23 1016.07 1015.87
1021.95 1022.11 1022.43 1022.71 1022.95 1023.07 1023.23 1023.55 1023.63 1023.75 1023.83 1023.91 1023.91 1024.11 1023.95 1023.71 1023.59 1023.67 1023.47 1023.51 1023.59 1023.43 1023.47 1023.31 1023.35 1023.39 1023.35 1023.31 1023.19 1023.15 1023.07 1022.91 1022.75 1022.59 1022.35 1022.19 1021.95 1021.67 1021.43 1021.19 1021.07 1020.91 1020.71 1020.43 1020.03 1019.79 1019.47 1019.23 1019.11 1019.07 1019.03 1018.95 1018.91 1018.95 1018.75 1018.31 1017.99 1017.71 1017.27 1016.87 1016.75 1017.27 1017.59 1017.79 1017.83 1017.91 1017.87 1017.67 1017.43 1017.23 1017.15 1017.03 1016.83 1016.15
1022.19 1022.39 1022.63 1022.91 1023.15 1023.39 1023.55 1023.67 1023.79 1023.91 1023.99 1023.91 1023.87 1023.79 1023.71 1023.79 1023.71 1023.79 1023.67 1023.71 1023.71 1023.79 1023.87 1023.55 1023.51 1023.59 1023.63 1023.43 1023.31 1023.11 1022.95 1022.79 1022.67 1022.63 1022.47 1022.23 1021.91 1021.63 1021.31 1021.03 1020.87 1020.67 1020.47 1020.19 1019.87 1019.51 1019.23 1019.03 1018.87 1018.79 1018.79 1018.71 1018.59 1018.59 1018.39 1018.15 1017.87 1017.39 1017.07 1016.91 1016.91 1017.07 1017.07 1017.23 1017.51 1017.63 1017.55 1017.55 1017.43 1017.19 1017.07 1017.03 1017.03 1016.99
1022.43 1022.55 1022.75 1022.99 1023.27 1023.47 1023.63 1023.79 1023.83 1023.95 1024.03 1024.03 1023.83 1023.83 1023.95 1023.87 1023.95 1023.87 1023.79 1023.95 1023.99 1024.23 1023.95 1023.75 1023.79 1023.79 1023.79 1023.67 1023.43 1023.19 1022.91 1022.91 1022.83 1022.51 1022.15 1021.79 1021.39 1021.11 1020.99 1020.91 1020.71 1020.43 1020.15 1019.87 1019.75 1019.39 1019.07 1018.83 1018.63 1018.51 1018.47 1018.39 1018.35 1018.27 1017.95 1017.79 1017.47 1017.23 1017.03 1016.99 1017.03 1017.07 1017.23 1017.47 1017.47 1017.59 1017.67 1017.63 1017.63 1017.39 1017.27 1017.19 1017.19 1017.19
Wind_Speed
5 5 5 5 5 5 5 5 5 3 1 1 1 2 1 1 2 3 4 4 4 5 4 4 5 5 5 4 4 4 5 6 7 6 5 7 7 8 10 11 11 11 10 10 9 9 10 10 10 11 12 12 12 11 10 10 10 10 10 9 9 7 6 4 4 4 5 6 6 6 5 4 5 12
5 5 5 5 6 6 5 5 5 4 3 1 0 2 2 2 2 1 2 5 4 5 4 4 5 4 5 4 3 3 5 6 7 5 5 5 7 8 10 10 10 10 10 10 9 9 9 9 9 10 10 10 10 10 9 10 9 10 10 10 10 9 7 7 6 7 6 6 5 5 5 4 5 5
4 5 5 5 5 5 5 5 5 4 3 2 1 0 2 2 4 1 3 4 4 3 4 4 4 4 4 4 4 3 4 3 4 3 2 4 10 9 9 10 9 8 8 9 9 9 9 8 8 8 8 9 9 9 9 9 10 9 10 9 9 9 9 9 9 9 8 8 8 7 6 6 5 5
4 4 5 5 4 3 4 5 4 4 4 4 4 3 1 2 2 2 1 4 6 3 3 4 4 4 3 2 3 3 3 4 6 3 3 2 12 9 8 10 8 7 7 7 8 8 8 7 7 7 8 7 7 7 8 8 8 7 6 7 8 8 8 9 9 10 9 9 8 8 7 7 8 6
3 3 4 4 4 3 4 4 3 4 4 3 3 4 3 3 2 1 4 5 6 4 2 1 3 2 1 3 2 4 2 1 3 2 3 2 2 2 1 7 9 7 5 5 5 6 6 7 7 7 7 7 7 7 6 6 6 6 6 7 8 9 9 9 8 8 9 9 9 9 9 9 9 8
2 2 2 4 3 2 3 1 2 3 2 2 3 3 2 4 3 2 3 5 5 5 3 3 3 3 2 2 2 3 1 1 1 1 1 1 2 3 5 1 7 7 4 2 2 3 3 5 6 6 7 7 7 7 7 6 6 6 6 5 6 7 8 9 8 8 8 8 9 9 9 9 9 9
3 2 2 2 2 1 2 1 3 2 1 1 4 2 2 3 3 3 2 2 4 5 5 4 4 2 2 2 2 2 2 2 2 1 1 2 2 2 2 4 4 7 5 2 2 3 3 3 4 6 6 7 7 7 7 6 7 7 7 7 6 6 6 7 7 8 8 8 8 8 9 9 9 10
2 2 2 2 1 1 1 0 1 1 2 0 3 2 3 2 2 3 1 0 2 4 5 4 2 4 3 3 2 1 2 1 2 3 2 1 1 2 3 3 1 7 5 5 5 5 5 5 5 5 7 7 7 6 6 7 7 7 7 6 7 7 7 7 6 7 10 10 10 10 10 10 10 11
1 2 1 1 1 1 1 1 2 2 0 0 2 1 1 2 2 1 1 1 1 3 4 4 2 2 2 1 1 2 4 1 2 1 2 3 3 1 3 3 0 8 9 9 9 8 8 7 6 5 7 7 7 7 7 6 6 6 6 6 6 7 7 7 6 6 6 7 8 11 12 11 12 12
3 2 2 2 1 1 2 2 0 1 0 1 1 1 2 2 2 1 0 1 1 1 3 4 4 3 2 2 1 1 0 3 3 4 5 3 2 3 4 4 1 3 1 2 4 9 10 10 7 8 7 6 8 8 7 7 7 6 5 4 6 7 7 7 7 7 7 8 8 8 10 12 13 13
5 5 4 4 4 5 4 3 2 2 1 1 2 3 3 3 1 3 2 2 2 2 2 3 2 3 2 2 2 3 1 2 2 3 6 6 4 4 5 6 3 2 3 6 10 8 7 8 9 5 10 10 9 8 8 8 8 7 4 3 6 7 8 8 7 7 7 8 9 9 9 10 12 14
5 6 5 6 6 6 6 4 4 2 3 3 3 3 3 5 3 3 2 3 4 3 3 4 3 3 1 2 1 3 3 3 3 4 5 7 6 6 5 6 4 3 4 6 4 8 11 12 14 16 14 12 9 9 10 12 11 7 2 3 5 7 8 8 8 8 7 8 10 10 10 9 10 12
5 5 5 6 6 6 4 8 6 4 3 5 6 6 7 6 5 4 4 4 4 4 4 4 4 4 5 4 3 5 5 4 5 5 4 6 6 6 7 7 3 2 5 6 6 7 6 6 7 7 7 5 13 12 14 8 9 5 2 5 6 8 9 8 8 8 7 8 10 10 11 10 10 10
4 4 4 4 3 3 5 7 7 6 6 6 7 3 5 6 6 5 5 4 5 4 5 6 6 7 8 7 1 2 1 2 3 4 4 7 7 7 7 7 3 1 4 6 8 8 6 5 7 7 5 4 5 5 6 2 4 3 5 5 6 8 10 10 9 9 8 8 9 9 10 11 12 11
4 4 4 3 7 6 6 8 9 8 9 8 11 11 9 7 4 6 6 6 5 4 6 6 5 7 7 5 2 2 2 1 2 4 5 6 6 6 8 8 7 2 1 6 9 9 7 6 7 6 7 6 6 6 3 8 3 5 8 7 8 8 9 10 10 9 10 9 9 9 10 11 12 12
4 4 3 4 5 6 7 7 9 11 11 11 10 7 7 5 7 6 3 4 5 6 6 5 5 4 4 3 2 2 2 3 5 5 6 6 6 7 7 8 8 5 6 8 9 10 7 6 7 8 7 6 6 6 4 2 6 8 8 9 9 9 9 9 9 9 9 9 10 10 10 10 11 11
3 3 3 3 3 3 9 7 7 7 8 9 6 4 3 5 6 5 6 7 4 4 3 3 3 2 1 2 1 2 3 3 5 6 7 6 7 7 8 8 9 8 8 8 9 9 8 8 7 8 7 7 6 6 10 13 9 8 9 9 10 9 10 10 9 9 9 10 10 10 10 10 11 11
2 1 1 2 1 2 5 4 4 4 4 5 6 7 6 6 5 5 7 5 6 3 3 2 2 2 1 1 2 2 2 4 5 6 7 7 8 9 9 10 11 10 7 8 7 9 8 7 8 9 8 7 7 7 6 8 12 11 9 10 9 9 9 10 9 9 10 11 11 11 10 11 11 11
1 1 0 1 2 1 3 3 5 3 4 4 5 7 8 7 7 5 3 1 1 2 1 1 1 2 2 1 1 1 2 3 4 5 7 9 9 9 10 10 10 9 7 7 6 9 9 8 8 9 8 8 8 8 9 9 10 10 9 7 7 8 9 9 9 9 10 11 12 12 12 12 12 11
1 1 0 1 1 2 3 7 4 5 5 5 6 7 8 7 6 6 5 5 8 8 5 4 3 3 4 5 4 4 4 4 4 5 7 8 8 9 8 9 8 8 6 4 7 9 9 7 9 9 8 9 9 8 8 9 11 10 7 7 8 9 9 9 10 11 11 11 11 12 13 13 13 13
4 5 4 3 1 1 6 5 1 1 6 5 6 7 8 6 6 6 5 7 8 8 9 8 7 6 4 4 4 3 3 2 4 6 8 9 7 8 10 10 9 8 7 6 8 9 10 8 9 10 9 9 10 10 9 9 7 10 10 11 12 12 11 12 12 12 12 12 13 14 14 13 13 14
6 8 10 9 2 4 5 5 3 3 6 4 5 6 7 7 6 6 6 4 4 6 6 5 4 3 3 1 1 3 3 3 4 6 8 8 8 9 9 10 9 9 8 9 3 5 9 10 9 10 9 10 10 8 6 7 4 14 14 16 15 14 15 13 12 12 12 13 14 14 14 14 13 11
5 6 8 11 9 7 6 5 3 2 7 3 4 5 6 6 5 4 5 4 4 3 3 3 3 4 5 6 6 7 11 8 8 9 9 8 8 9 9 9 9 10 8 1 4 7 8 9 9 9 10 10 8 7 7 6 6 7 9 7 9 14 13 11 11 12 14 15 16 15 15 14 13 10
5 6 6 7 8 7 7 7 6 6 9 2 3 3 4 4 3 4 3 3 1 2 2 2 3 5 5 6 7 7 8 9 10 10 9 8 8 8 9 9 9 10 8 7 8 9 10 10 12 10 11 12 10 8 8 9 8 8 7 8 9 9 9 10 11 14 16 17 17 16 17 16 13 10
5 6 6 6 6 7 9 9 10 11 12 11 4 5 5 7 6 2 2 3 2 3 3 4 6 6 6 6 6 7 6 7 7 8 8 8 9 10 11 11 10 11 10 6 9 11 13 13 13 12 12 12 13 13 10 11 10 9 9 9 11 10 9 9 9 10 11 12 15 18 18 17 16 11
4 6 6 7 6 8 11 11 12 12 12 12 7 8 9 7 5 1 1 2 3 3 4 5 5 6 6 6 6 6 6 6 6 6 7 9 11 10 11 12 13 13 12 11 9 14 14 13 12 13 12 12 13 12 13 12 12 13 12 12 11 12 12 12 11 11 10 10 10 9 4 10 14 12
5 6 8 8 7 10 10 11 11 11 11 10 8 7 6 5 1 5 3 1 4 5 5 5 6 7 6 6 5 5 6 5 5 7 9 11 12 12 12 12 13 14 14 13 13 13 13 13 13 13 13 13 14 13 13 13 11 11 12 11 12 11 11 11 12 12 11 11 10 13 16 14 13 15
6 8 8 8 10 11 11 11 11 11 10 8 8 6 5 6 6 4 2 4 3 4 5 6 6 6 5 6 6 5 5 7 9 10 11 12 12 11 11 12 13 13 14 14 14 13 14 14 14 13 14 14 14 14 14 12 12 12 12 11 11 11 11 11 11 11 11 11 10 10 10 9 9 7
7 13 16 14 13 13 13 14 13 11 9 8 6 5 6 8 5 1 3 3 4 5 4 5 5 6 5 5 5 6 7 9 10 11 11 10 10 11 11 11 12 12 10 10 12 12 12 11 12 12 12 12 13 13 13 14 12 13 12 12 12 10 11 11 11 11 11 10 10 9 9 9 8 8
18 16 14 14 14 14 12 9 6 6 6 8 8 7 9 5 1 2 3 3 4 4 4 4 5 5 5 5 6 8 9 9 9 10 9 9 9 9 9 10 10 10 10 11 11 11 11 11 12 12 12 12 12 13 12 13 13 12 12 12 12 12 11 10 10 10 10 10 10 10 10 10 10 11
11 12 10 7 6 8 8 9 9 8 8 8 7 5 2 2 1 2 2 3 4 4 4 4 5 5 6 7 7 8 8 8 8 8 8 8 9 9 9 10 10 10 10 10 10 10 10 10 11 11 11 11 11 12 12 11 13 12 12 11 11 11 10 11 11 10 10 10 10 9 10 10 10 11
10 9 10 10 7 7 6 7 6 5 3 1 1 2 1 1 1 1 3 5 4 5 4 5 5 7 7 8 8 8 8 8 8 8 8 8 9 9 9 9 10 10 10 10 9 9 9 10 10 10 10 11 11 11 11 11 12 12 12 11 11 11 11 11 11 11 10 10 9 10 10 10 10 9
9 9 8 5 5 4 3 2 1 2 2 0 1 1 2 2 1 2 2 3 4 4 5 6 5 5 7 8 8 8 8 8 9 8 9 9 9 9 9 10 10 10 11 10 10 9 9 9 9 10 10 11 12 12 11 12 11 11 11 11 11 11 10 10 10 10 10 10 10 10 10 9 9 8
8 6 5 4 3 3 3 2 2 1 0 0 0 1 1 2 1 3 2 2 3 4 4 5 5 5 6 7 8 8 9 9 9 9 9 9 9 9 8 9 10 10 10 11 10 10 9 9 9 9 10 11 11 12 12 11 12 11 10 10 10 11 10 10 10 11 10 9 10 10 10 9 8 8
6 6 5 4 3 3 2 2 1 0 0 0 0 0 0 0 0 1 2 2 2 3 4 4 5 5 6 7 7 8 9 9 9 9 8 9 9 10 10 9 10 10 10 11 11 10 10 9 9 9 9 10 10 10 11 12 12 12 11 11 10 10 10 9 9 9 9 9 8 9 9 9 9 8
5 5 4 4 3 3 2 2 1 1 0 1 0 0 0 0 0 1 1 3 5 3 4 5 5 6 6 6 7 7 8 7 8 9 8 8 8 9 10 10 10 11 10 11 11 10 10 10 9 10 9 9 9 10 8 12 15 11 11 9 9 9 9 9 9 9 8 8 8 9 9 9 8 8
5 4 4 3 3 3 2 2 2 1 2 0 0 0 1 1 1 2 2 2 4 4 4 5 5 6 6 6 7 7 7 8 8 8 9 8 8 9 9 10 10 10 11 10 10 10 9 10 10 9 10 10 9 9 9 4 11 16 10 9 9 9 9 9 9 9 9 9 10 9 8 8 8 8
5 4 4 4 5 4 3 2 2 2 1 0 0 0 0 2 3 4 4 4 2 4 5 5 5 6 6 6 8 8 8 8 8 8 8 8 9 9 9 9 9 10 11 11 10 10 9 10 10 9 9 10 9 10 9 6 5 6 14 10 9 9 8 8 9 9 8 9 9 9 8 8 7 7
6 6 5 4 4 4 3 2 2 2 2 0 0 0 1 2 2 2 2 3 2 4 5 5 6 6 7 7 7 8 9 9 9 9 9 9 9 9 9 9 10 10 10 10 10 10 9 9 9 10 10 9 9 8 8 8 8 7 5 9 8 8 9 9 9 9 8 8 7 7 7 4 3 5
5 5 5 5 5 5 4 4 2 2 1 1 0 2 2 1 2 2 3 3 3 4 5 5 6 7 7 7 8 8 9 9 9 9 9 9 9 10 10 9 9 10 10 10 10 9 9 9 9 9 9 8 8 7 6 7 9 9 9 7 12 11 9 8 8 8 7 7 7 7 7 5 6 2
6 5 5 4 5 5 4 3 3 1 1 0 0 0 2 2 2 2 3 3 3 4 5 6 6 6 7 8 8 9 9 9 9 9 9 9 9 10 10 11 11 9 9 10 9 9 9 9 8 5 5 5 4 4 7 9 9 7 7 6 11 17 16 12 7 7 7 7 6 6 6 6 6 5
5 4 5 5 4 4 4 3 3 1 0 0 0 1 2 2 2 2 5 4 4 4 6 6 6 7 7 8 8 8 9 9 9 9 9 9 10 10 9 9 9 9 9 10 10 9 9 10 9 8 6 6 6 6 7 7 8 7 5 6 1 5 5 2 4 5 7 7 7 6 4 4 3 4
5 5 3 4 3 3 3 2 1 1 0 0 1 2 2 2 2 2 3 3 3 4 5 6 6 7 8 8 8 8 9 9 9 9 9 9 9 10 10 9 9 9 9 10 10 9 9 9 8 8 7 6 6 6 7 7 7 7 6 5 1 3 3 4 4 4 6 8 5 3 2 2 3 3
4 5 3 3 3 3 2 1 1 0 0 1 1 1 2 2 2 2 2 3 3 4 4 6 7 8 8 8 8 8 8 8 9 10 10 10 10 10 10 10 10 10 10 9 9 9 8 8 7 6 7 7 6 6 7 7 7 5 5 4 2 3 2 1 4 6 2 7 11 6 2 2 2 2
3 3 3 3 3 3 2 2 1 1 1 1 2 2 2 2 2 3 2 2 3 3 4 6 7 7 8 8 8 8 8 9 10 10 9 10 9 9 9 9 9 9 9 9 9 9 7 7 6 5 6 6 5 6 6 6 6 5 4 3 3 1 1 2 2 3 4 5 10 10 7 10 11 12
Wind_Direction
59 64 51 54 62 58 56 44 45 54 9 57 159 212 181 307 123 155 133 107 109 77 26 83 72 62 69 67 70 62 56 24 332 89 89 77 74 58 57 55 55 51 48 50 49 46 42 38 32 31 29 25 24 21 24 27 32 36 38 41 43 35 24 10 331 304 310 291 317 350 339 311 279 228
64 61 58 59 69 55 53 59 48 55 49 20 220 276 327 293 292 149 145 107 76 101 68 51 83 73 84 98 84 88 93 15 327 69 90 96 86 91 72 62 56 53 48 47 45 45 41 36 31 31 29 25 20 16 12 19 17 20 26 23 23 19 13 12 357 355 341 328 327 329 329 338 313 298
74 73 72 72 69 64 64 62 61 54 47 74 132 97 290 33 328 5 110 139 80 28 94 76 57 73 75 77 85 82 69 41 315 87 88 99 128 124 96 83 65 56 53 46 42 42 39 32 25 17 21 18 18 12 11 17 18 14 12 12 13 11 10 5 1 356 358 348 339 323 323 314 306 303
88 83 79 65 63 56 78 74 64 66 52 28 49 75 83 99 7 345 20 90 110 73 89 108 120 107 78 56 100 102 110 116 283 96 103 110 173 197 118 101 86 62 52 46 41 40 34 24 18 13 10 6 5 12 8 10 12 10 3 360 2 3 6 6 4 356 352 348 334 332 321 305 303 305
90 79 84 85 75 61 59 71 72 58 66 73 60 61 82 94 106 67 91 117 120 120 106 132 97 85 246 100 47 78 84 127 136 134 64 48 15 11 124 121 106 89 57 43 37 38 31 20 11 4 358 359 354 357 1 0 1 1 359 357 355 354 355 357 357 351 350 341 336 329 325 322 311 300
81 88 84 82 79 67 79 68 120 112 109 106 109 93 84 105 106 91 120 129 137 132 160 148 139 125 267 108 81 78 60 88 339 47 109 108 9 31 337 141 115 115 86 37 32 6 10 17 0 346 343 342 341 340 340 342 345 347 346 345 350 349 348 343 339 342 343 337 337 336 331 323 318 311
100 116 101 112 102 127 116 97 59 65 40 52 81 81 86 94 107 112 104 139 130 151 140 163 158 119 94 336 102 118 93 12 331 312 25 351 31 15 358 332 117 131 143 196 271 295 298 311 337 333 319 325 326 326 324 327 329 335 335 339 341 344 338 332 332 336 336 336 335 334 331 325 316 307
149 130 141 122 140 153 164 179 121 147 97 192 94 128 116 115 82 72 108 115 118 146 148 176 176 140 169 176 172 188 199 217 271 341 322 245 269 356 343 327 21 136 172 208 245 259 273 259 293 316 305 306 314 311 313 312 318 319 324 332 334 337 332 326 333 337 337 335 333 329 327 325 319 309
205 171 212 156 151 182 247 179 237 112 350 280 129 148 127 118 94 121 298 94 147 155 149 145 138 166 173 107 52 354 334 289 254 224 288 305 313 327 326 298 2 145 184 209 222 238 248 254 244 285 283 290 296 301 300 305 302 302 309 321 330 330 326 323 317 321 329 325 324 325 323 320 315 311
189 207 206 198 212 233 235 224 163 14 118 26 333 22 334 82 112 54 92 241 167 216 161 171 162 201 190 191 153 18 15 332 324 343 340 313 229 318 324 322 294 323 256 283 207 216 240 207 234 242 245 250 264 270 282 292 293 289 294 307 326 324 321 317 308 310 317 318 313 308 315 318 314 310
215 214 203 199 195 203 221 232 193 176 155 25 348 34 358 296 189 203 201 193 198 217 192 198 207 171 168 288 261 162 324 237 263 345 341 330 341 332 327 316 321 218 263 228 213 249 283 291 282 211 214 228 241 251 260 262 261 264 252 311 321 320 318 311 307 307 315 314 307 303 299 305 311 309
227 224 221 206 201 199 201 204 225 189 175 205 207 125 208 257 237 242 219 221 222 212 225 268 244 267 258 220 244 314 281 321 323 15 341 324 328 326 321 305 284 298 304 311 303 217 218 230 227 233 236 225 235 237 241 236 241 218 202 306 317 310 306 304 302 303 309 311 306 301 300 297 298 304
225 229 223 220 221 210 207 197 227 197 219 207 208 201 202 209 217 232 241 235 232 255 264 260 266 259 262 262 277 296 310 334 338 337 320 309 313 319 314 316 293 259 305 311 304 307 311 294 305 311 302 184 202 224 222 229 183 144 326 330 313 304 300 299 294 291 293 301 303 301 304 306 304 300
222 234 232 218 171 154 180 206 211 206 222 248 270 255 201 215 222 224 235 251 244 257 264 270 280 282 290 311 8 301 339 331 311 304 313 309 314 308 310 308 325 180 308 313 309 313 313 299 294 290 280 276 229 289 240 39 44 356 330 290 292 292 294 297 296 290 286 286 292 296 300 303 305 304
215 211 212 218 151 168 185 216 220 218 223 226 240 273 300 281 270 233 226 234 257 270 266 281 274 275 285 275 280 301 321 271 308 317 311 302 302 311 317 316 319 123 346 312 311 306 307 290 288 288 285 275 271 276 255 71 351 314 291 287 274 278 284 287 287 284 287 290 292 293 293 296 298 300
213 220 206 209 179 192 199 214 209 215 218 221 233 255 291 297 34 35 354 274 246 244 263 270 265 291 298 350 304 309 340 343 327 318 305 292 299 305 302 304 301 327 341 315 305 299 296 288 285 280 274 277 274 268 308 302 239 252 261 271 281 280 281 282 279 279 279 282 284 282 281 284 290 289
217 221 214 209 209 167 161 213 226 218 198 201 204 202 143 67 43 36 35 30 4 331 293 282 277 285 1 302 335 54 3 335 312 314 300 311 308 302 295 295 305 305 318 301 290 294 302 294 282 280 282 283 274 262 213 217 225 235 252 272 279 280 277 276 278 280 282 282 283 280 280 278 278 281
219 218 274 287 236 175 181 216 232 259 217 173 185 190 197 195 122 90 92 80 46 6 297 295 284 87 330 329 40 54 348 326 312 307 302 307 303 298 294 299 291 288 279 271 291 288 291 303 301 290 290 286 283 270 280 173 200 217 253 266 275 277 273 272 276 278 281 284 284 288 287 286 282 279
159 166 140 276 291 320 291 34 18 270 243 211 195 192 193 190 185 170 147 102 206 168 217 353 43 79 64 41 16 306 294 288 296 301 296 294 289 288 284 274 260 267 253 240 253 279 296 300 290 288 292 294 286 285 282 225 214 219 230 255 275 267 265 266 264 270 275 280 284 288 291 291 289 282
172 130 314 276 322 341 68 75 23 327 303 210 199 187 177 170 130 78 61 39 34 32 37 46 51 64 55 41 32 18 343 312 300 285 272 266 264 268 279 286 293 283 288 252 257 277 286 298 294 291 291 290 287 291 287 282 201 200 199 217 230 246 258 257 260 266 272 276 280 283 286 289 289 286
80 48 18 0 354 81 81 76 119 211 286 211 189 175 168 165 155 131 117 78 64 62 66 71 75 79 79 81 69 47 7 342 332 297 285 275 285 294 291 291 291 290 297 290 277 284 289 295 297 295 291 290 293 289 284 280 148 159 185 212 222 233 237 241 251 259 266 277 282 285 285 285 286 286
87 63 35 4 27 73 82 95 126 189 247 198 177 176 172 174 163 144 145 144 110 110 103 87 86 88 106 152 200 216 213 220 246 256 275 298 299 284 283 285 291 294 292 290 343 302 290 303 297 297 296 293 279 275 281 296 241 183 202 212 223 222 221 231 244 249 259 270 276 276 276 276 281 280
103 88 60 38 34 59 84 83 91 312 287 201 174 179 191 200 209 164 154 152 161 170 181 178 193 203 191 217 225 214 196 206 222 245 264 280 278 280 284 289 292 287 278 266 125 273 289 300 302 303 300 292 294 292 288 280 282 294 299 273 230 214 220 226 238 254 260 260 262 264 265 267 269 279
124 112 102 77 58 84 87 80 66 44 2 325 142 189 201 227 191 124 120 67 39 168 230 237 232 264 258 250 235 243 200 199 219 238 259 270 278 286 288 289 286 282 288 289 293 291 295 296 293 295 294 297 296 295 289 283 280 286 293 287 285 284 263 248 248 242 243 249 252 250 250 251 243 268
147 129 102 99 68 80 84 80 67 54 37 20 52 36 51 46 64 92 138 121 265 255 263 265 263 259 254 245 246 242 244 233 226 235 251 263 273 283 285 284 282 279 279 298 62 302 292 294 291 292 286 285 287 289 291 293 292 295 296 296 292 284 285 291 294 290 283 262 239 235 236 231 228 242
133 121 121 115 87 83 83 79 76 68 61 53 69 64 69 55 26 335 357 212 219 247 247 259 261 266 270 275 277 279 274 273 267 268 276 279 280 279 278 280 283 284 287 299 313 294 292 287 286 288 288 288 288 290 292 289 292 292 288 288 291 298 299 295 289 290 296 294 296 279 281 219 244 235
125 115 109 101 95 93 89 84 83 88 92 84 86 97 85 84 82 265 243 319 280 272 283 289 286 283 279 275 281 287 289 292 303 297 292 291 293 293 287 282 280 281 286 287 283 278 276 276 278 277 280 282 285 288 285 287 288 293 291 292 292 292 291 293 296 298 296 296 294 297 295 272 224 217
132 134 123 113 108 93 86 79 72 65 67 93 115 122 146 187 226 253 256 248 269 287 276 273 275 284 300 300 290 303 316 306 298 295 287 283 277 271 272 276 275 277 281 282 284 283 283 284 284 285 283 282 281 281 285 284 283 286 288 291 292 293 296 297 294 292 292 291 290 291 295 300 299 276
89 93 105 116 115 111 106 107 106 101 106 119 133 167 203 228 234 251 302 306 297 288 289 293 304 300 300 309 303 293 298 306 298 280 289 291 292 292 290 287 285 283 278 275 276 275 275 278 280 283 281 278 276 276 277 281 287 288 292 295 291 293 295 296 293 292 292 292 295 297 299 300 295 288
108 114 119 122 127 133 145 159 142 124 131 160 173 196 231 236 25 322 320 311 299 300 307 308 299 303 312 312 329 325 304 297 298 307 302 299 297 296 292 290 286 283 282 281 280 280 280 278 278 278 278 275 274 277 278 284 284 285 287 286 289 292 285 284 286 292 295 292 291 290 285 280 275 279
111 127 135 127 107 91 81 82 102 129 155 178 190 194 192 27 340 11 354 333 303 287 291 311 319 319 320 318 305 303 312 304 299 302 301 295 292 295 293 292 290 290 289 288 286 284 282 280 279 280 278 278 277 275 278 279 281 284 284 284 286 284 292 294 295 290 290 289 290 286 284 278 275 272
131 129 114 124 137 143 157 164 174 164 163 134 59 359 334 343 55 209 172 236 255 274 319 320 305 308 308 307 308 306 302 301 298 298 294 294 292 292 294 290 290 294 296 294 288 279 267 270 271 270 268 271 275 279 281 279 279 281 283 283 283 283 283 286 287 288 287 290 287 284 282 284 287 289
139 144 158 159 164 174 174 177 182 156 159 105 91 66 341 303 304 326 324 313 317 336 327 313 312 307 304 305 308 301 297 298 301 299 297 295 292 294 292 289 291 295 297 299 298 295 291 286 275 267 268 270 269 270 272 275 273 276 281 283 285 282 284 283 286 287 291 287 285 286 285 288 295 296
148 162 165 166 173 170 181 184 178 172 161 167 178 116 99 260 17 346 307 302 335 340 316 311 308 307 306 301 303 305 304 305 302 302 297 292 291 289 288 290 292 295 296 297 298 297 296 291 289 282 274 267 260 258 258 263 270 274 275 283 282 284 283 285 282 285 286 285 290 293 290 293 294 294
161 165 172 172 171 173 174 180 139 126 159 142 207 94 2 329 207 269 295 342 321 305 312 309 304 301 303 303 305 307 307 304 301 302 299 294 294 291 292 292 292 294 295 296 295 296 296 294 291 288 284 281 280 271 253 251 263 262 272 272 278 280 285 284 287 286 288 291 291 292 294 292 288 288
170 173 173 172 168 165 168 140 140 154 119 121 138 278 285 355 5 321 302 357 302 313 312 312 312 306 305 306 306 305 303 301 299 300 302 299 298 296 295 294 292 291 290 289 291 293 294 291 289 287 285 285 283 282 278 219 221 257 261 273 278 283 284 285 289 292 295 290 283 283 284 287 290 293
169 168 163 163 154 164 153 148 152 129 130 123 106 20 333 330 344 325 349 259 279 316 324 310 304 307 307 307 307 306 305 306 305 305 302 300 297 296 293 290 287 286 286 284 289 290 288 287 284 281 280 280 278 277 278 296 214 216 257 269 276 279 282 287 289 287 285 283 284 281 280 288 289 295
164 154 156 156 162 151 140 142 134 147 134 116 84 352 327 330 338 338 325 312 328 314 325 315 315 309 309 313 312 312 311 308 306 301 298 297 295 293 292 292 291 288 287 288 288 287 284 281 278 275 273 273 278 278 286 287 293 226 214 240 267 272 278 279 278 283 285 285 284 285 284 280 284 296
165 157 155 154 149 149 149 145 141 134 141 114 39 345 345 330 343 329 325 321 323 324 328 320 316 319 315 312 314 315 312 309 304 300 296 292 291 290 289 288 288 287 289 288 288 286 284 277 271 270 267 267 266 278 291 298 282 291 266 209 252 272 270 268 277 280 281 283 283 287 285 261 229 260
155 158 146 144 148 146 144 144 147 141 148 172 227 8 339 331 331 331 336 331 337 327 327 326 327 324 316 319 315 312 308 301 299 298 296 292 289 286 284 286 288 290 288 286 286 287 283 281 281 281 282 275 279 287 297 289 284 282 277 249 217 238 257 273 271 274 281 287 299 297 293 297 293 226
145 146 136 145 140 138 139 147 144 135 143 124 351 299 310 333 309 341 341 333 340 328 330 329 331 324 322 320 317 314 310 308 304 302 299 295 290 289 288 286 285 282 284 286 286 285 281 280 293 313 290 285 283 292 277 268 263 269 265 272 209 209 225 246 276 283 287 299 297 291 290 296 301 305
152 139 136 140 139 132 137 138 133 129 147 152 327 338 330 309 331 273 272 229 237 280 328 336 337 331 326 322 319 315 311 311 309 306 304 302 301 300 295 294 293 294 291 289 288 287 288 291 294 290 285 279 273 256 257 261 275 284 292 294 6 87 93 110 7 327 296 277 274 273 280 276 282 287
144 133 131 124 129 138 125 131 137 143 74 345 346 339 308 319 327 319 327 350 332 338 341 340 341 332 328 325 321 318 313 312 311 309 305 302 301 301 300 297 293 291 288 286 285 286 287 290 288 285 277 270 261 251 261 269 278 283 286 289 287 161 156 137 122 101 55 17 356 308 305 323 327 304
130 130 131 133 131 128 130 122 101 84 11 332 331 313 333 329 325 325 330 346 342 348 343 340 342 335 328 322 320 318 315 312 306 301 297 293 293 295 298 297 295 292 290 287 289 290 293 291 286 281 273 266 259 255 257 264 268 273 289 303 322 316 300 216 175 186 153 31 13 358 346 293 294 351
138 137 136 138 137 143 138 146 130 74 17 342 327 351 332 327 336 324 339 336 353 343 333 346 338 333 325 320 317 315 314 304 296 293 296 300 304 306 302 299 296 296 294 294 295 294 294 295 293 282 267 263 258 254 260 263 277 300 299 302 301 317 0 8 5 27 18 24 19 26 73 80 82 83